{"data":{"norad_id":64187,"intl_designator":"2025-113T","name":"STARLINK-33934","alt_names":[],"object_type":"PAYLOAD","status":"ACTIVE","operator":null,"country":"US","launch_date":"2025-05-28","launch_site_code":"AFETR","launch_vehicle":null,"mission":null,"orbit_class":"UNKNOWN","rcs_meters":null,"size_class":null,"mass_kg":null,"dimensions":null,"purposes":["comms"],"wikipedia_slug":null,"has_3d_model":false,"image_url":null,"decayed_at":null,"tle_current":{"epoch":"2026-09-20T06:16:51.379392Z","epoch_age_seconds":161074,"freshness":"FRESH","line1":"1 64187U 25113T   26263.26170578  .00019726  00000+0  59339-3 0  9999","line2":"2 64187  53.1558 266.7504 0001200  39.6461 320.4630 15.34401837 74822","mean_motion":15.34401837,"eccentricity":0.00012,"inclination_deg":53.1558,"raan_deg":266.7504,"arg_perigee_deg":39.6461,"mean_anomaly_deg":320.463,"bstar":0.00059339,"rev_number":7482,"period_min":93.847645725935,"perigee_km":461.87688008779,"apogee_km":463.51868043505,"semimajor_km":6840.8347802614,"source":"CELESTRAK","updated_at":"2026-09-21T09:00:35.246324Z"}}}